Погода в Посьете

Погода в Посьете : погода сейчас, прогноз погоды и архив. Всё, что Вы хотите узнать о погоде в Посьете!

Хотите узнать прогноз погоды в Посьете? Тогда Вам сюда: Погода в Посьете

Поиск расширенной информации на нашем сайте:

Полезная информация:

Другие новости

Новости СМИ2

Главная страница сайта

Новости сайта

03.07.2017

Напоминаем, что на нашем специализированном сайте Метеоцентр.Азия вы можете получить высокодетализированные автоматические прогнозы погоды по пунктам России, СНГ и мира в авиационном формате (включающие направление и скорость ветра, видимость, явления погоды, количество и форму облачности, нижнюю и верхнюю границу облачности).

Рекомендуем:

Погода в Посьете - сегодня

Время (UTC), дата Ветер
(°,м/с) 
Видим.   Явления Облачность Т
(°С)
Тd
(°С)
f(%) Тe
(°С)
Pmin
(гПа)
dP
(гПа)
Po
(мм)
O2
(г/м3)
Тmin Tmax R s Состояние
почвы
00 17.06.19 280 (З) 20000 м    ясно 
+17.8 +11.4 66 +21  1011.4  0.4  755  284           
03 17.06.19 270 (З) 20000 м    ясно 
+22 +9 43 +22  1010  -1.4  754  280           
06 17.06.19 200 (Ю) 20000 м    ясно 
+20.8 +13.9 65 +28  1008.9  -1.1  753  279           
09 17.06.19 220 (ЮЗ) 20000 м    ясно 
+19.5 +14.3 72 +27  1008.4  -0.5  753  280    +23.7       
12 17.06.19 080 (В) 20000 м    1/0 средняя 
[Ac lent]
+15.4 +14.1 92 +23  1009.6  1.1  754  285           
15 17.06.19 050 (СВ) 20000 м    ясно 
+14.4 +14.4 100 +23  1009.7  0.1  754  286           
18 17.06.19 030 (СВ) 0500 м  туман  ?/?  
+14.2 +14.2 100 +22  1008.8  -0.9  753  286           
21 17.06.19 310 (СЗ) 0500 м  туман  ?/?  
+13.8 +13.8 100 +22  1008.7  0.1  753  286  +13.8        сухая 
00 18.06.19 260 (З) 20000 м  {туман}  3/0 верхняя 
[Cc]
+18.4 +15.3 82 +28  1007.5  -1.1  752  281  +13.7         
03 18.06.19 160 (Ю) 20000 м    3/3 600 м верхняя 
[Cu med, cong|Ci sp]
+21.6 +15.7 69 +31  1006.3  -1.1  751  277           
06 18.06.19 100 (В) 20000 м    3/3 600 м верхняя 
[Cu med, cong|Ci sp]
+20.1 +16 77 +31  1004.5  -1.8  750  278           
09 18.06.19 090 (В) 20000 м    4/3 600 м кучево-дожд., верхняя 
[Cb calv|Ci sp]
+20.2 +15.1 72 +29  1003.7  -0.7  749  278    +22       
12 18.06.19 090 (В) 3{11}  4000 м  дымка  9/8 600 м верхняя 
[St|Cs]
+15.1 +15.1 100 +24  1005.6  1.8  751  283           
15 18.06.19 130 (ЮВ) 4000 м  дымка  10/10 600 м 
[St]
+14.7 +14.7 100 +23  1006.2  0.5  751  284           
18 18.06.19 040 (СВ) 4000 м  дымка  10/10 600 м 
[St]
+14.9 +14.4 97 +24  1005.9  -0.3  751  284           
21 18.06.19 320 (СЗ) 20000 м    10/10 600 м 
[Sc]
+14.9 +14.4 97 +24  1006.4  0.6  751  284  +14.6        сухая 
00 19.06.19 050 (СВ) 20000 м    8/3 600 м верхняя 
[Cu hum|Cs]
+17.7 +14 79 +26  1006  -0.4  751  281           
03 19.06.19 170 (Ю) 20000 м    5/1 600 м верхняя 
[Cu hum|Ci]
+22.3 +15.5 65 +32  1004.5  -1.4  750  276           
06 19.06.19 160 (Ю) 20000 м    4/1 600 м верхняя 
[Cu hum|Ci]
+18.4 +14.6 79 +27  1002.8  -1.8  749  280           
09 19.06.19 090 (В) 20000 м  в посл. час дождь  8/3 300 м средняя 
[St|Ac trans]
+16.8 +15.9 94 +28  1002.6  -0.2  749  281    +22.9  0.7     
12 19.06.19 270 (З) 10 км  гроза, ливневой дождь  10/10 600 м кучево-дожд. 
[Cb cap]
+16.7 +16.3 97 +28  1003.2  0.6  749  281           
15 19.06.19 060 (СВ) 4000 м  дымка{гроза, ливн. осадки}  8/0 средняя, верхняя 
[Ac cuf|Cs]
+15.9 +15.9 100 +27  1002.5  -0.6  748  282           
18 19.06.19 070 (В) 4000 м  дымка{гроза, ливн. осадки}  8/0 верхняя 
[Cs]
+15.3 +15.3 100 +26  1002.4  -0.1  748  282           
21 19.06.19 070 (В) 4000 м  дымка  10/10 300 м 
[St]
+15 +15 100 +25  1003.4  749  283  +14.7      влажная 
00 20.06.19 160 (Ю) 10 км  дымка  10/10 100 м 
[St]
+15.3 +14.8 97 +24  1004.1  0.7  750  283           
Время (UTC), дата Ветер
(°,м/с) 
Видим.   Явления Облачность Т
(°С)
Тd
(°С)
f(%) Тe
(°С)
Pmin
(гПа)
dP
(гПа)
Po
(мм)
O2
(г/м3)
Тmin Tmax R s Состояние
почвы

Для получения пояснительной информации подведите курсор к названию столбца.

ПОГОДА в Посьете - архив

Всё, что Вы хотите узнать о погоде в Посьете - удобно и подробно!

Выберите нужную дату (начиная с 1 января 2018* года) и нажмите кнопку "Найти".
Будут отображены архивные сводки погоды по пункту Посьет, начиная с указанной даты.


Отображать данные в формате CSV (для использования в таблицах Excel)


Внимание! Наш архив погоды предназначен исключительно для личного некоммерческого использования в познавательных целях. Если Вам необходимы официальные справки о состоянии погоды (для производственных, юридических, коммерческих и т.п. целей), обращайтесь в органы Росгидромета.

*Примечание: данная дата относится к архиву по метеостанциям СССР (Россия, СНГ, Балтия).
Архив по метеостанциям Зарубежной Европы и Азии (кроме Китая) хранится 10 дней, по другим регионам земного шара (Китай, Африка, Америка, Австралия, Океания) - 1 день.

Посьет - район местоположения метеостанции


Название, широта, долгота, высота метеостанции:
Посьет 42.6°ш. 130.8°д. 35 м над ур. моря [Российская Федерация]

Дополнительная информация

В oтличие oт бoльшинства пoгoдных сайтoв мы публикуем пoдрoбную метеoинфoрмацию в детальнoм прoфессиoнальнoм фoрмате.

Характеристики температуры и влажнoсти вoздуха измеряются на высoте 2 м в тени вдали oт зданий и деревьев.
Скoрoсть ветра измеряется на высoте 10 м (на урoвне рoста челoвека скoрoсть ветра ниже в 1.5-2 раза). Если метеoстанция нахoдится в гoрoде или в лесу, тo скoрoсть ветра занижена на 2-4 м/с пo сравнению с oткрытым местoм. Скoрoсть ветра над акватoриями крупных рек и oзёр, а также на вершинах хoлмoв на 2-5 м/с выше, чем в oбычных услoвиях.
Атмoсфернoе давление в разных тoчках местнoсти мoжет значительнo oтличаться oт давления на метеoстанции, в зависимoсти oт услoвий рельефа (при пoдъёме на 10 м давление пoнижается примернo на 1 мм рт.ст.).